User: anonymous   Login
Location: Unspecified
(0.0000°N, 0.0000°E)
Time: 04:12:42
(UTC+00:00)
Language:

Kosmos-2239 - Orbit

View from above orbital plane
View from above orbital plane
View from above satellite
View from above satellite

Ground track
Ground track

The orbit data is extracted from the following two-line orbital elements,

1 22590U 93020A   18343.72415038 +.00000025 +00000-0 +10025-4 0  9990
2 22590 082.9319 020.1594 0023883 042.0762 091.7530 13.75396019289220
Epoch (UTC): 09 December 2018 17:22:46
Eccentricity: 0.0023883
inclination: 82.9319°
perigee height: 962 km
apogee height: 998 km
right ascension of ascending node: 20.1594°
argument of perigee: 42.0762°
revolutions per day: 13.75396019
mean anomaly at epoch: 91.7530°
orbit number at epoch: 28922

The dashed part of the orbit path shows where the satellite is in the earth's shadow,  

DLR